Latest Weather Observations for Fort Denison

IDN60901

Issued at 12:51 pm EDT Thursday 8 December 2016 (issued every 10 minutes, with the page automatically refreshed every 10 minutes)

About weather observations | Map of Sydney area stations | Latest observations for Sydney area | Other Formats
Station Details ID: 066022 Name: FORT DENISON Lat: -33.86 Lon: 151.23 Height: 5.0 m
Data from the previous 72 hours. | See also: Recent months for locations in New South Wales
Date/Time
EDT
Temp
°C
App
Temp
°C
Dew
Point
°C
Rel
Hum
%
Delta-T
°C
Wind Press
QNH
hPa
Press
MSL
hPa
Rain since
9am
mm
Dir  Spd
km/h
Gust
km/h
Spd
kts
Gust
kts
08/12:30pm - - - - - ENE 26 37 14 20 - - -
08/12:00pm - - - - - ENE 22 30 12 16 - - -
08/11:30am - - - - - ENE 22 33 12 18 - - -
08/11:00am - - - - - ENE 22 28 12 15 - - -
08/10:30am - - - - - E 24 26 13 14 - - -
08/10:00am - - - - - E 20 24 11 13 - - -
08/09:30am - - - - - ENE 20 22 11 12 - - -
08/09:00am - - - - - NNE 9 15 5 8 - - -
08/08:30am - - - - - N 11 17 6 9 - - -
08/08:00am - - - - - N 13 17 7 9 - - -
08/07:30am - - - - - N 11 20 6 11 - - -
08/07:00am - - - - - N 13 20 7 11 - - -
08/06:30am - - - - - NNW 9 15 5 8 - - -
08/06:00am - - - - - NNW 7 11 4 6 - - -
08/05:30am - - - - - NNW 7 11 4 6 - - -
08/05:00am - - - - - N 11 17 6 9 - - -
08/04:30am - - - - - N 9 13 5 7 - - -
08/04:00am - - - - - N 6 9 3 5 - - -
08/03:30am - - - - - N 7 11 4 6 - - -
08/03:00am - - - - - NNE 9 17 5 9 - - -
08/02:30am - - - - - NNE 17 24 9 13 - - -
08/02:00am - - - - - NNE 20 30 11 16 - - -
08/01:30am - - - - - N 15 20 8 11 - - -
08/01:00am - - - - - NNE 15 24 8 13 - - -
08/12:30am - - - - - NNE 17 28 9 15 - - -
08/12:00am - - - - - NNE 19 28 10 15 - - -
 
Date/Time
EDT
Temp
°C
App
Temp
°C
Dew
Point
°C
Rel
Hum
%
Delta-T
°C
Wind Press
QNH
hPa
Press
MSL
hPa
Rain since
9am
mm
Dir  Spd
km/h
Gust
km/h
Spd
kts
Gust
kts
07/11:30pm - - - - - NE 15 26 8 14 - - -
07/11:00pm - - - - - NE 15 26 8 14 - - -
07/10:30pm - - - - - NE 15 28 8 15 - - -
07/10:00pm - - - - - NE 15 26 8 14 - - -
07/09:30pm - - - - - ENE 15 26 8 14 - - -
07/09:00pm - - - - - NE 15 22 8 12 - - -
07/08:30pm - - - - - NE 19 32 10 17 - - -
07/08:00pm - - - - - NE 20 32 11 17 - - -
07/07:30pm - - - - - ENE 20 28 11 15 - - -
07/07:00pm - - - - - ENE 22 28 12 15 - - -
07/06:30pm - - - - - ENE 26 32 14 17 - - -
07/06:00pm - - - - - ENE 26 32 14 17 - - -
07/05:30pm - - - - - ENE 26 32 14 17 - - -
07/05:00pm - - - - - E 22 30 12 16 - - -
07/04:30pm - - - - - ENE 22 26 12 14 - - -
07/04:00pm - - - - - ENE 22 28 12 15 - - -
07/03:30pm - - - - - ENE 22 28 12 15 - - -
07/03:00pm - - - - - E 24 30 13 16 - - -
07/02:30pm - - - - - E 19 24 10 13 - - -
07/02:00pm - - - - - E 20 26 11 14 - - -
07/01:30pm - - - - - ESE 20 26 11 14 - - -
07/01:00pm - - - - - ESE 22 28 12 15 - - -
07/12:30pm - - - - - ESE 19 26 10 14 - - -
07/12:00pm - - - - - ESE 19 22 10 12 - - -
07/11:30am - - - - - E 19 22 10 12 - - -
07/11:00am - - - - - ESE 17 24 9 13 - - -
07/10:30am - - - - - ESE 17 24 9 13 - - -
07/10:00am - - - - - ESE 20 26 11 14 - - -
07/09:30am - - - - - ESE 20 28 11 15 - - -
07/09:00am - - - - - SE 15 24 8 13 - - -
07/08:30am - - - - - SE 15 24 8 13 - - -
07/08:00am - - - - - S 4 15 2 8 - - -
07/07:30am - - - - - W 11 15 6 8 - - -
07/07:00am - - - - - NW 11 15 6 8 - - -
07/06:30am - - - - - W 17 22 9 12 - - -
07/06:00am - - - - - WNW 13 17 7 9 - - -
07/05:30am - - - - - WNW 13 19 7 10 - - -
07/05:00am - - - - - WSW 6 7 3 4 - - -
07/04:30am - - - - - SSE 6 9 3 5 - - -
07/04:00am - - - - - S 6 11 3 6 - - -
07/03:30am - - - - - SSW 7 9 4 5 - - -
07/03:00am - - - - - SSW 11 19 6 10 - - -
07/02:30am - - - - - SSW 17 26 9 14 - - -
07/02:00am - - - - - SSW 19 37 10 20 - - -
07/01:30am - - - - - SSW 20 32 11 17 - - -
07/01:00am - - - - - S 17 24 9 13 - - -
07/12:30am - - - - - SSW 17 28 9 15 - - -
07/12:00am - - - - - S 15 22 8 12 - - -
 
Date/Time
EDT
Temp
°C
App
Temp
°C
Dew
Point
°C
Rel
Hum
%
Delta-T
°C
Wind Press
QNH
hPa
Press
MSL
hPa
Rain since
9am
mm
Dir  Spd
km/h
Gust
km/h
Spd
kts
Gust
kts
06/11:30pm - - - - - SSW 17 28 9 15 - - -
06/11:00pm - - - - - SW 15 30 8 16 - - -
06/10:30pm - - - - - W 19 24 10 13 - - -
06/10:00pm - - - - - W 11 15 6 8 - - -
06/09:30pm - - - - - W 13 19 7 10 - - -
06/09:00pm - - - - - W 17 20 9 11 - - -
06/08:30pm - - - - - W 17 20 9 11 - - -
06/08:00pm - - - - - WNW 13 17 7 9 - - -
06/07:30pm - - - - - WNW 9 13 5 7 - - -
06/07:00pm - - - - - NE 4 6 2 3 - - -
06/06:30pm - - - - - NNE 4 7 2 4 - - -
06/06:00pm - - - - - W 6 7 3 4 - - -
06/05:30pm - - - - - WNW 7 9 4 5 - - -
06/05:00pm - - - - - SW 6 7 3 4 - - -
06/04:30pm - - - - - CALM 0 4 0 2 - - -
06/04:00pm - - - - - N 4 6 2 3 - - -
06/03:30pm - - - - - NNW 13 15 7 8 - - -
06/03:00pm - - - - - NE 7 11 4 6 - - -
06/02:30pm - - - - - E 9 11 5 6 - - -
06/02:00pm - - - - - SSE 9 11 5 6 - - -
06/01:30pm - - - - - ESE 13 17 7 9 - - -
06/01:00pm - - - - - E 6 9 3 5 - - -
06/12:30pm - - - - - ESE 9 9 5 5 - - -
06/12:00pm - - - - - SSE 9 13 5 7 - - -
06/11:30am - - - - - SSE 13 19 7 10 - - -
06/11:00am - - - - - S 6 9 3 5 - - -
06/10:30am - - - - - SSE 9 13 5 7 - - -
06/10:00am - - - - - SSE 11 15 6 8 - - -
06/09:30am - - - - - W 6 9 3 5 - - -
06/09:00am - - - - - W 15 19 8 10 - - -
06/08:30am - - - - - WSW 7 9 4 5 - - -
06/08:00am - - - - - SSW 9 17 5 9 - - -
06/07:30am - - - - - SSW 13 22 7 12 - - -
06/07:00am - - - - - SSW 11 19 6 10 - - -
06/06:30am - - - - - SSW 11 17 6 9 - - -
06/06:00am - - - - - S 15 24 8 13 - - -
06/05:30am - - - - - S 15 20 8 11 - - -
06/05:00am - - - - - S 9 17 5 9 - - -
06/04:30am - - - - - S 7 15 4 8 - - -
06/04:00am - - - - - SSW 7 11 4 6 - - -
06/03:30am - - - - - SW 9 15 5 8 - - -
06/03:00am - - - - - SSW 11 15 6 8 - - -
06/02:30am - - - - - SSW 9 15 5 8 - - -
06/02:00am - - - - - SSW 13 20 7 11 - - -
06/01:30am - - - - - SSW 9 13 5 7 - - -
06/01:00am - - - - - SSW 9 13 5 7 - - -
06/12:30am - - - - - S 13 20 7 11 - - -
06/12:00am - - - - - SW 15 26 8 14 - - -
 
Date/Time
EDT
Temp
°C
App
Temp
°C
Dew
Point
°C
Rel
Hum
%
Delta-T
°C
Wind Press
QNH
hPa
Press
MSL
hPa
Rain since
9am
mm
Dir  Spd
km/h
Gust
km/h
Spd
kts
Gust
kts
05/11:34pm - - - - - SSW 28 46 15 25 - - -
05/11:30pm - - - - - S 30 46 16 25 - - -
05/11:00pm - - - - - S 33 57 18 31 - - -
05/10:33pm - - - - - S 33 52 18 28 - - -
05/10:30pm - - - - - S 35 52 19 28 - - -
05/10:00pm - - - - - S 33 52 18 28 - - -
05/09:47pm - - - - - SSW 35 59 19 32 - - -
05/09:30pm - - - - - SSW 35 48 19 26 - - -
05/09:23pm - - - - - SSW 26 48 14 26 - - -
05/09:00pm - - - - - E 4 9 2 5 - - -
05/08:30pm - - - - - NE 4 7 2 4 - - -
05/08:00pm - - - - - ENE 6 11 3 6 - - -
05/07:30pm - - - - - NE 6 13 3 7 - - -
05/07:00pm - - - - - NNE 9 19 5 10 - - -
05/06:30pm - - - - - NE 17 28 9 15 - - -
05/06:00pm - - - - - SE 15 20 8 11 - - -
05/05:30pm - - - - - SE 17 20 9 11 - - -
05/05:00pm - - - - - NNE 17 33 9 18 - - -
05/04:30pm - - - - - ESE 11 15 6 8 - - -
05/04:00pm - - - - - E 19 24 10 13 - - -
05/03:30pm - - - - - SSE 22 32 12 17 - - -
05/03:00pm - - - - - E 17 20 9 11 - - -
05/02:30pm - - - - - E 13 15 7 8 - - -
05/02:00pm - - - - - ESE 15 17 8 9 - - -
05/01:30pm - - - - - E 15 19 8 10 - - -
05/01:00pm - - - - - E 15 19 8 10 - - -

Latest Capital City Observations: Canberra | Sydney | Melbourne | Brisbane | Adelaide | Perth | Hobart | Darwin

Other Formats:

Comma delimited format used in spreadsheet applications
http://www.bom.gov.au/fwo/IDN60901/IDN60901.94769.axf

JavaScript Object Notation format (JSON) in row-major order
http://www.bom.gov.au/fwo/IDN60901/IDN60901.94769.json